Terminal Aerodrome Forecast
Issued by NWS

Home | Current Version | Previous Version | Text Only | Print | Product List | Glossary On
Versions: 1 2 3 4 5 6 7 8 9 10 11 12 13 14 15 16 17 18 19 20 21 22 23 24 25
662
FTUS41 KPBZ 131843 AAA
TAFLBE
TAF AMD
KLBE 131843Z 1319/1418 29014G24KT 6SM -SHSN BKN035
      TEMPO 1319/1322 2SM -SHSN BKN020 OVC030
     FM140100 30010G16KT P6SM BKN035
     FM140700 27007KT P6SM SCT035
     FM141500 23005KT P6SM SCT040 BKN250=

USA.gov is the U.S. government's official web portal to all federal, state and local government web resources and services.